CW9669 Weather Reports


Display with metric or nautical units.
time (UTC)temp
F
wind
direction
speed
MPH
gust
MPH
rain 1hr
in
rain 24hr
in
rain mn
in
humidity
%
barometer
mb
20260503045334 59 327 0.0 1.0 0.00 0.01 0.01 86 1010.5
20260503044330 60 316 0.0 0.0 0.00 0.01 0.01 85 1010.5
20260503043813 60 316 0.0 0.0 0.00 0.01 0.01 85 1010.6
20260503042334 60 316 0.0 1.0 0.00 0.01 0.01 84 1010.3
20260503041330 60 316 0.0 0.0 0.00 0.01 0.01 83 1010.1
20260503040339 61 316 0.0 0.0 0.00 0.01 0.01 83 1010.1
20260503035337 62 316 0.0 0.0 0.00 0.01 0.01 81 1009.9
20260503035256 62 316 0.0 0.0 0.00 0.01 0.01 80 1009.9
20260503033333 63 316 0.0 2.0 0.00 0.01 0.01 80 1009.9
20260503032337 63 330 1.0 3.0 0.00 0.01 0.01 79 1009.9
20260503031338 63 307 1.0 4.0 0.00 0.01 0.01 78 1010.0
20260503030330 64 287 1.0 4.0 0.00 0.01 0.01 77 1010.0
20260503025330 64 288 2.0 6.0 0.00 0.01 0.01 76 1010.1
20260503024331 64 300 3.0 8.0 0.00 0.01 0.01 75 1009.9
20260503023330 65 286 3.0 7.0 0.00 0.01 0.01 74 1009.9
20260503022334 65 19 3.0 11.0 0.00 0.01 0.01 73 1010.0
20260503021822 66 317 3.0 9.0 0.00 0.01 0.01 73 1010.0
20260503020809 67 14 3.0 11.0 0.00 0.01 0.01 72 1010.0
20260503015336 67 301 3.0 8.0 0.00 0.01 0.01 72 1009.9
20260503014812 67 299 3.0 8.0 0.00 0.01 0.01 71 1010.0
20260503013809 68 275 2.0 6.0 0.00 0.01 0.01 70 1010.0
20260503013308 67 309 1.0 5.0 0.00 0.01 0.01 70 1010.0
20260503011331 67 11 2.0 5.0 0.00 0.01 0.01 71 1010.0
20260503010330 67 297 3.0 5.0 0.00 0.01 0.01 70 1010.0
20260503005331 67 327 2.0 8.0 0.00 0.01 0.01 70 1010.4
20260503004333 67 344 3.0 7.0 0.00 0.01 0.01 71 1010.2
20260503003330 67 284 3.0 8.0 0.00 0.01 0.01 71 1010.1
20260503002817 66 283 3.0 7.0 0.00 0.01 0.01 71 1009.9
20260503001334 66 285 3.0 7.0 0.00 0.01 0.01 72 1009.8
20260503000334 66 292 4.0 10.0 0.00 0.01 0.01 71 1009.9
20260502235334 65 317 3.0 8.0 0.00 0.01 0.01 72 1009.7
20260502234330 65 291 3.0 7.0 0.00 0.01 0.01 71 1009.9
20260502233332 65 284 3.0 9.0 0.00 0.01 0.01 72 1010.1
20260502232331 65 319 2.0 6.0 0.00 0.01 0.01 71 1010.3
20260502231330 64 303 3.0 9.0 0.00 0.01 0.01 71 1010.5
20260502230833 65 323 3.0 9.0 0.00 0.01 0.01 71 1010.6
20260502225818 64 346 2.0 7.0 0.00 0.01 0.01 71 1010.8
20260502224332 64 295 3.0 9.0 0.00 0.01 0.01 71 1011.0
20260502223332 65 275 1.0 5.0 0.00 0.01 0.01 70 1011.3
20260502222330 64 291 2.0 8.0 0.00 0.01 0.01 71 1011.3
20260502221330 63 311 3.0 9.0 0.00 0.01 0.01 73 1011.5
20260502220334 62 13 3.0 10.0 0.00 0.01 0.01 74 1011.5
20260502215334 62 291 4.0 8.0 0.00 0.01 0.01 74 1011.6
20260502214334 61 314 3.0 9.0 0.00 0.01 0.01 75 1011.8
20260502213335 61 319 3.0 8.0 0.00 0.01 0.01 74 1012.0
20260502212334 61 20 3.0 9.0 0.00 0.01 0.01 74 1012.1
20260502211331 61 294 4.0 10.0 0.00 0.01 0.01 75 1012.2
20260502210332 61 298 2.0 6.0 0.00 0.01 0.01 74 1012.4
20260502205329 60 315 3.0 8.0 0.00 0.01 0.01 77 1012.5
20260502204329 60 302 3.0 8.0 0.00 0.01 0.01 76 1012.5
20260502203329 59 327 3.0 10.0 0.00 0.01 0.01 78 1012.6
20260502202332 59 307 3.0 8.0 0.00 0.01 0.01 78 1012.6
20260502201329 58 296 4.0 9.0 0.00 0.01 0.01 79 1012.9
20260502200330 57 302 3.0 10.0 0.00 0.01 0.01 80 1013.0
20260502195329 57 300 2.0 8.0 0.00 0.01 0.01 82 1013.1
20260502194326 56 286 3.0 9.0 0.00 0.01 0.01 82 1013.1
20260502193326 56 346 2.0 5.0 0.00 0.01 0.01 82 1013.5
20260502192330 55 317 2.0 4.0 0.00 0.01 0.01 83 1013.4
20260502191325 55 302 2.0 6.0 0.00 0.01 0.01 83 1013.4
20260502190326 55 332 1.0 4.0 0.00 0.01 0.01 82 1013.5
20260502185812 55 329 2.0 8.0 0.00 0.01 0.01 82 1013.5
20260502184325 55 284 1.0 4.0 0.00 0.01 0.01 82 1013.6
20260502183325 55 306 1.0 4.0 0.00 0.01 0.01 82 1013.8
20260502182325 54 277 2.0 4.0 0.00 0.01 0.01 83 1013.8
20260502181325 54 5 1.0 5.0 0.00 0.01 0.01 83 1013.8
20260502180326 55 306 2.0 4.0 0.00 0.01 0.01 82 1013.8
20260502164320 55 9 0.0 3.0 0.00 0.01 0.01 81 1014.1
20260502163319 55 265 1.0 3.0 0.00 0.01 0.01 82 1014.0
20260502162319 54 302 1.0 3.0 0.00 0.01 0.01 84 1013.9
20260502161323 53 308 1.0 4.0 0.00 0.01 0.01 84 1013.9
20260502160321 52 350 2.0 7.0 0.00 0.01 0.01 85 1013.9
20260502152309 51 311 1.0 3.0 0.00 0.01 0.01 88 1014.2
20260502151309 51 346 2.0 4.0 0.00 0.01 0.01 88 1014.3
20260502150310 51 9 1.0 4.0 0.00 0.01 0.01 88 1014.3
20260502130310 50 268 0.0 1.0 0.00 0.00 0.00 85 1013.8
20260502123305 50 338 1.0 2.0 0.00 0.00 0.00 84 1013.9
20260502122746 51 304 0.0 1.0 0.00 0.00 0.00 84 1014.1
20260502121304 51 294 0.0 2.0 0.00 0.00 0.00 83 1014.2
20260502120306 51 271 0.0 3.0 0.00 0.00 0.00 83 1014.2
20260502115308 51 314 1.0 3.0 0.00 0.00 0.00 83 1014.3
20260502114306 51 307 0.0 1.0 0.00 0.00 0.00 83 1014.4
20260502113308 51 286 0.0 2.0 0.00 0.00 0.00 83 1014.3
20260502112743 51 306 0.0 2.0 0.00 0.00 0.00 83 1014.2
20260502111305 51 327 0.0 1.0 0.00 0.00 0.00 83 1014.3
20260502110305 51 275 0.0 1.0 0.00 0.00 0.00 83 1014.4
20260502105306 51 286 0.0 1.0 0.00 0.00 0.00 84 1014.3
20260502104307 51 303 0.0 1.0 0.00 0.00 0.00 84 1014.4
20260502103746 50 285 0.0 1.0 0.00 0.00 0.00 84 1014.4
20260502102746 50 286 0.0 1.0 0.00 0.00 0.00 85 1014.4
20260502101745 50 261 0.0 1.0 0.00 0.00 0.00 85 1014.4
20260502100307 50 263 0.0 0.0 0.00 0.00 0.00 84 1014.3
20260502091305 51 295 1.0 3.0 0.00 0.00 0.00 82 1014.5
20260502090304 51 317 1.0 1.0 0.00 0.00 0.00 82 1014.7
20260502071310 54 292 0.0 3.0 0.00 0.00 0.00 77 1015.5
20260502071009 54 284 1.0 2.0 0.00 0.00 0.00 77 1015.4
20260502065256 54 299 1.0 2.0 0.00 0.00 0.00 77 1015.3
20260502064259 54 300 1.0 3.0 0.00 0.00 0.00 77 1015.4
20260502063255 54 310 1.0 3.0 0.00 0.00 0.00 77 1015.5
20260502063216 54 294 1.0 4.0 0.00 0.00 0.00 77 1015.7
20260502061256 55 292 1.0 4.0 0.00 0.00 0.00 76 1015.7
20260502060248 55 285 1.0 3.0 0.00 0.00 0.00 75 1015.6
20260502055248 55 304 1.0 5.0 0.00 0.00 0.00 75 1015.6
20260502054252 55 302 2.0 7.0 0.00 0.00 0.00 74 1015.2
20260502053729 55 334 2.0 7.0 0.00 0.00 0.00 73 1014.9
20260502052250 56 290 1.0 6.0 0.00 0.00 0.00 73 1015.0
20260502051737 56 298 2.0 8.0 0.00 0.00 0.00 72 1015.1
20260502050250 56 302 1.0 7.0 0.00 0.00 0.00 71 1015.0